| time (UTC) | temp F | wind direction | speed MPH | gust MPH | rain 1hr in | rain 24hr in | rain mn in | humidity % | barometer mb |
| 20260506123523 | 48 | 163 | 0.0 | 0.0 | 0.00 | 0.51 | 0.51 | 98 | 1005.6 |
| 20260506123021 | 48 | 188 | 2.0 | 2.0 | 0.00 | 0.51 | 0.51 | 99 | 1005.4 |
| 20260506122518 | 48 | 162 | 1.0 | 2.0 | 0.00 | 0.51 | 0.51 | 98 | 1005.5 |
| 20260506122016 | 49 | 128 | 0.0 | 1.0 | 0.07 | 0.51 | 0.51 | 99 | 1005.1 |
| 20260506121513 | 48 | 169 | 0.0 | 0.0 | 0.00 | 0.50 | 0.50 | 99 | 1004.7 |
| 20260506121009 | 48 | 159 | 2.0 | 2.0 | 0.05 | 0.50 | 0.50 | 99 | 1004.9 |
| 20260506120508 | 48 | 125 | 3.0 | 3.0 | 0.05 | 0.50 | 0.50 | 99 | 1005.4 |
| 20260506120005 | 49 | 168 | 1.0 | 1.0 | 0.00 | 0.49 | 0.49 | 99 | 1005.4 |
| 20260506115502 | 49 | 140 | 0.0 | 1.0 | 0.00 | 0.49 | 0.49 | 99 | 1005.3 |
| 20260506115000 | 49 | 170 | 0.0 | 1.0 | 0.00 | 0.49 | 0.49 | 99 | 1005.4 |
| 20260506114457 | 49 | 129 | 2.0 | 2.0 | 0.00 | 0.49 | 0.49 | 99 | 1005.3 |
| 20260506113956 | 49 | 58 | 2.0 | 3.0 | 0.00 | 0.49 | 0.49 | 99 | 1005.3 |
| 20260506113453 | 49 | 9 | 1.0 | 2.0 | 0.00 | 0.49 | 0.49 | 99 | 1005.4 |
| 20260506112950 | 49 | 56 | 2.0 | 2.0 | 0.00 | 0.49 | 0.49 | 99 | 1005.2 |
| 20260506112447 | 49 | 29 | 4.0 | 5.0 | 0.00 | 0.49 | 0.49 | 99 | 1004.9 |
| 20260506111944 | 49 | 52 | 1.0 | 3.0 | 0.00 | 0.49 | 0.49 | 99 | 1004.6 |
| 20260506111443 | 50 | 150 | 0.0 | 1.0 | 0.00 | 0.49 | 0.49 | 99 | 1004.3 |
| 20260506110939 | 50 | 147 | 1.0 | 2.0 | 0.07 | 0.49 | 0.49 | 99 | 1004.2 |
| 20260506110437 | 50 | 163 | 1.0 | 1.0 | 0.07 | 0.49 | 0.49 | 99 | 1004.4 |
| 20260506105933 | 50 | 155 | 1.0 | 1.0 | 0.00 | 0.48 | 0.48 | 99 | 1004.4 |
| 20260506105430 | 50 | 53 | 5.0 | 6.0 | 0.00 | 0.48 | 0.48 | 99 | 1004.3 |
| 20260506104927 | 51 | 169 | 2.0 | 3.0 | 0.00 | 0.48 | 0.48 | 99 | 1004.1 |
| 20260506104425 | 51 | 172 | 2.0 | 2.0 | 0.00 | 0.48 | 0.48 | 99 | 1004.1 |
| 20260506103923 | 51 | 182 | 0.0 | 1.0 | 0.05 | 0.48 | 0.48 | 99 | 1004.2 |
| 20260506103420 | 51 | 168 | 2.0 | 3.0 | 0.05 | 0.48 | 0.48 | 99 | 1004.2 |
| 20260506102917 | 52 | 170 | 0.0 | 1.0 | 0.12 | 0.47 | 0.47 | 99 | 1004.0 |
| 20260506102415 | 53 | 164 | 1.0 | 1.0 | 0.24 | 0.47 | 0.47 | 99 | 1003.9 |
| 20260506101912 | 55 | 32 | 5.0 | 7.0 | 0.17 | 0.44 | 0.44 | 99 | 1003.8 |
| 20260506101408 | 56 | 78 | 0.0 | 1.0 | 0.19 | 0.42 | 0.42 | 99 | 1003.7 |
| 20260506100906 | 56 | 178 | 0.0 | 1.0 | 0.19 | 0.41 | 0.41 | 99 | 1003.5 |
| 20260506100404 | 56 | 177 | 0.0 | 0.0 | 0.12 | 0.40 | 0.40 | 99 | 1003.4 |
| 20260506095902 | 57 | 184 | 1.0 | 1.0 | 0.07 | 0.38 | 0.38 | 99 | 1003.6 |
| 20260506095400 | 57 | 175 | 0.0 | 1.0 | 0.12 | 0.38 | 0.38 | 99 | 1003.2 |
| 20260506094856 | 57 | 185 | 1.0 | 1.0 | 0.05 | 0.37 | 0.37 | 99 | 1003.1 |
| 20260506094355 | 57 | 168 | 0.0 | 0.0 | 0.07 | 0.36 | 0.36 | 99 | 1002.9 |
| 20260506093852 | 57 | 178 | 0.0 | 0.0 | 0.07 | 0.36 | 0.36 | 99 | 1003.4 |
| 20260506093350 | 57 | 177 | 0.0 | 0.0 | 0.00 | 0.35 | 0.35 | 99 | 1003.3 |
| 20260506092847 | 56 | 180 | 0.0 | 0.0 | 0.05 | 0.35 | 0.35 | 99 | 1003.2 |
| 20260506092345 | 56 | 181 | 1.0 | 1.0 | 0.05 | 0.35 | 0.35 | 99 | 1003.4 |
| 20260506091841 | 56 | 170 | 0.0 | 0.0 | 0.07 | 0.34 | 0.34 | 99 | 1003.4 |
| 20260506091339 | 56 | 170 | 0.0 | 0.0 | 0.12 | 0.34 | 0.34 | 99 | 1003.2 |
| 20260506090836 | 56 | 170 | 0.0 | 0.0 | 0.12 | 0.33 | 0.33 | 99 | 1003.3 |
| 20260506090334 | 56 | 175 | 0.0 | 0.0 | 0.12 | 0.32 | 0.32 | 99 | 1003.4 |
| 20260506085830 | 56 | 180 | 0.0 | 0.0 | 0.12 | 0.31 | 0.31 | 99 | 1003.4 |
| 20260506085326 | 56 | 185 | 1.0 | 1.0 | 0.14 | 0.30 | 0.30 | 99 | 1003.3 |
| 20260506084823 | 56 | 178 | 0.0 | 1.0 | 0.12 | 0.29 | 0.29 | 99 | 1003.7 |
| 20260506084320 | 56 | 174 | 1.0 | 1.0 | 0.12 | 0.28 | 0.28 | 99 | 1003.6 |
| 20260506083817 | 56 | 173 | 0.0 | 0.0 | 0.12 | 0.27 | 0.27 | 99 | 1003.7 |
| 20260506083314 | 57 | 206 | 2.0 | 2.0 | 0.17 | 0.26 | 0.26 | 99 | 1003.9 |
| 20260506082812 | 57 | 177 | 0.0 | 0.0 | 0.19 | 0.25 | 0.25 | 99 | 1003.7 |
| 20260506082308 | 57 | 177 | 0.0 | 0.0 | 0.12 | 0.23 | 0.23 | 99 | 1004.1 |
| 20260506081805 | 57 | 179 | 1.0 | 1.0 | 0.12 | 0.22 | 0.22 | 99 | 1003.9 |
| 20260506081302 | 57 | 170 | 0.0 | 0.0 | 0.12 | 0.21 | 0.21 | 99 | 1003.8 |
| 20260506080800 | 57 | 159 | 0.0 | 0.0 | 0.12 | 0.20 | 0.20 | 99 | 1003.9 |
| 20260506080256 | 57 | 163 | 0.0 | 0.0 | 0.12 | 0.19 | 0.19 | 99 | 1003.9 |
| 20260506073240 | 56 | 157 | 0.0 | 0.0 | 0.00 | 0.13 | 0.13 | 99 | 1003.5 |
| 20260506072737 | 57 | 157 | 0.0 | 0.0 | 0.00 | 0.13 | 0.13 | 99 | 1003.5 |
| 20260506072234 | 57 | 156 | 0.0 | 0.0 | 0.00 | 0.13 | 0.13 | 99 | 1003.6 |
| 20260506071732 | 57 | 158 | 0.0 | 0.0 | 0.00 | 0.13 | 0.13 | 99 | 1003.6 |
| 20260506071230 | 57 | 159 | 0.0 | 0.0 | 0.00 | 0.13 | 0.13 | 99 | 1003.5 |
| 20260506070727 | 57 | 155 | 0.0 | 1.0 | 0.00 | 0.13 | 0.13 | 98 | 1003.7 |
| 20260506070224 | 57 | 164 | 0.0 | 0.0 | 0.00 | 0.13 | 0.13 | 98 | 1003.7 |
| 20260506062200 | 57 | 176 | 0.0 | 1.0 | 0.05 | 0.13 | 0.13 | 98 | 1004.6 |
| 20260506061656 | 57 | 166 | 0.0 | 0.0 | 0.05 | 0.13 | 0.13 | 98 | 1004.5 |
| 20260506061154 | 57 | 175 | 0.0 | 0.0 | 0.07 | 0.12 | 0.12 | 98 | 1004.5 |
| 20260506060652 | 57 | 175 | 0.0 | 0.0 | 0.07 | 0.12 | 0.12 | 98 | 1004.6 |
| 20260506060149 | 57 | 176 | 0.0 | 0.0 | 0.05 | 0.11 | 0.11 | 98 | 1004.9 |
| 20260506051121 | 59 | 176 | 0.0 | 0.0 | 0.05 | 0.07 | 0.07 | 98 | 1005.3 |
| 20260506050619 | 59 | 175 | 0.0 | 0.0 | 0.05 | 0.07 | 0.07 | 97 | 1005.6 |
| 20260506050116 | 59 | 132 | 1.0 | 1.0 | 0.07 | 0.06 | 0.06 | 97 | 1005.3 |
| 20260506045109 | 59 | 164 | 0.0 | 0.0 | 0.05 | 0.05 | 0.05 | 97 | 1005.7 |
| 20260506044607 | 59 | 164 | 0.0 | 0.0 | 0.05 | 0.05 | 0.05 | 97 | 1005.6 |
| 20260506044104 | 59 | 162 | 0.0 | 0.0 | 0.05 | 0.05 | 0.05 | 97 | 1006.1 |
| 20260506043601 | 59 | 163 | 0.0 | 0.0 | 0.07 | 0.04 | 0.04 | 96 | 1005.9 |
| 20260506043059 | 59 | 163 | 0.0 | 0.0 | 0.14 | 0.04 | 0.04 | 96 | 1005.9 |
| 20260506042558 | 59 | 166 | 0.0 | 0.0 | 0.12 | 0.03 | 0.03 | 96 | 1006.0 |
| 20260506042055 | 59 | 173 | 0.0 | 0.0 | 0.05 | 0.02 | 0.02 | 96 | 1006.1 |
| 20260506041554 | 59 | 169 | 0.0 | 0.0 | 0.07 | 0.01 | 0.01 | 95 | 1006.2 |
| 20260506041050 | 60 | 168 | 0.0 | 0.0 | 0.07 | 0.01 | 0.01 | 94 | 1006.3 |
| 20260506040548 | 60 | 178 | 0.0 | 0.0 | 0.00 | 0.00 | 0.00 | 94 | 1006.1 |
| 20260506040044 | 60 | 178 | 1.0 | 1.0 | 0.00 | 0.00 | 0.00 | 92 | 1006.1 |
| 20260506035541 | 60 | 178 | 1.0 | 1.0 | 0.00 | 0.04 | 0.04 | 91 | 1006.2 |
| 20260506035038 | 60 | 178 | 0.0 | 0.0 | 0.00 | 0.04 | 0.04 | 90 | 1006.0 |
| 20260506034535 | 61 | 165 | 1.0 | 1.0 | 0.00 | 0.04 | 0.04 | 89 | 1005.7 |
| 20260506034032 | 61 | 169 | 0.0 | 0.0 | 0.00 | 0.04 | 0.04 | 88 | 1005.6 |
| 20260506033530 | 61 | 159 | 0.0 | 1.0 | 0.00 | 0.04 | 0.04 | 87 | 1005.7 |
| 20260506033026 | 61 | 181 | 1.0 | 1.0 | 0.00 | 0.04 | 0.04 | 86 | 1006.0 |
| 20260506032524 | 62 | 144 | 1.0 | 1.0 | 0.00 | 0.04 | 0.04 | 85 | 1006.0 |
| 20260506032020 | 62 | 167 | 0.0 | 0.0 | 0.00 | 0.04 | 0.04 | 84 | 1005.9 |
| 20260506031518 | 62 | 164 | 0.0 | 0.0 | 0.00 | 0.04 | 0.04 | 84 | 1005.7 |
| 20260506031015 | 62 | 162 | 0.0 | 0.0 | 0.00 | 0.04 | 0.04 | 83 | 1005.6 |
| 20260506030513 | 62 | 155 | 0.0 | 1.0 | 0.00 | 0.04 | 0.04 | 83 | 1005.9 |
| 20260506030010 | 62 | 167 | 0.0 | 0.0 | 0.00 | 0.04 | 0.04 | 82 | 1005.6 |
| 20260506025507 | 62 | 168 | 1.0 | 1.0 | 0.00 | 0.04 | 0.04 | 82 | 1005.9 |
| 20260506025003 | 62 | 160 | 0.0 | 0.0 | 0.00 | 0.04 | 0.04 | 82 | 1005.6 |
| 20260506024500 | 62 | 172 | 0.0 | 0.0 | 0.00 | 0.04 | 0.04 | 82 | 1005.6 |
| 20260506023955 | 62 | 170 | 0.0 | 0.0 | 0.00 | 0.04 | 0.04 | 81 | 1005.4 |
| 20260506023453 | 62 | 175 | 0.0 | 1.0 | 0.00 | 0.04 | 0.04 | 80 | 1005.6 |
| 20260506022949 | 63 | 145 | 1.0 | 1.0 | 0.00 | 0.04 | 0.04 | 80 | 1005.6 |
| 20260506022447 | 63 | 65 | 4.0 | 5.0 | 0.00 | 0.04 | 0.04 | 79 | 1005.7 |
| 20260506021945 | 63 | 148 | 1.0 | 2.0 | 0.00 | 0.04 | 0.04 | 79 | 1005.2 |
| 20260506021442 | 63 | 171 | 0.0 | 1.0 | 0.00 | 0.04 | 0.04 | 78 | 1005.6 |
| 20260506020939 | 64 | 172 | 1.0 | 2.0 | 0.00 | 0.04 | 0.04 | 77 | 1005.6 |
| 20260506020437 | 64 | 163 | 2.0 | 2.0 | 0.00 | 0.04 | 0.04 | 76 | 1005.6 |
| 20260506015934 | 64 | 154 | 2.0 | 2.0 | 0.00 | 0.04 | 0.04 | 74 | 1005.7 |
| 20260506015431 | 65 | 166 | 3.0 | 3.0 | 0.00 | 0.04 | 0.04 | 73 | 1005.3 |
| 20260506014928 | 66 | 32 | 9.0 | 10.0 | 0.00 | 0.04 | 0.04 | 71 | 1005.7 |
| 20260506014425 | 66 | 210 | 4.0 | 6.0 | 0.00 | 0.04 | 0.04 | 67 | 1005.9 |
| 20260506013921 | 66 | 102 | 2.0 | 2.0 | 0.00 | 0.04 | 0.04 | 65 | 1004.9 |
| 20260506013420 | 66 | 176 | 0.0 | 0.0 | 0.00 | 0.04 | 0.04 | 66 | 1004.9 |
| 20260506012915 | 67 | 152 | 1.0 | 1.0 | 0.00 | 0.04 | 0.04 | 65 | 1005.0 |
| 20260506012412 | 67 | 173 | 0.0 | 1.0 | 0.00 | 0.04 | 0.04 | 65 | 1004.9 |
| 20260506011909 | 67 | 200 | 2.0 | 3.0 | 0.00 | 0.04 | 0.04 | 60 | 1004.6 |
| 20260506011406 | 67 | 197 | 1.0 | 2.0 | 0.00 | 0.04 | 0.04 | 66 | 1005.0 |
| 20260506010903 | 67 | 178 | 0.0 | 0.0 | 0.00 | 0.04 | 0.04 | 63 | 1005.0 |
| 20260506010402 | 67 | 169 | 0.0 | 1.0 | 0.00 | 0.04 | 0.04 | 62 | 1004.8 |
| 20260506005858 | 68 | 171 | 0.0 | 1.0 | 0.00 | 0.04 | 0.04 | 60 | 1004.8 |
| 20260506005355 | 68 | 167 | 1.0 | 1.0 | 0.00 | 0.04 | 0.04 | 62 | 1004.8 |
| 20260506004850 | 68 | 175 | 0.0 | 0.0 | 0.00 | 0.04 | 0.04 | 62 | 1004.9 |
| 20260506004349 | 69 | 159 | 0.0 | 0.0 | 0.00 | 0.04 | 0.04 | 59 | 1004.9 |
| 20260506003845 | 69 | 172 | 1.0 | 1.0 | 0.00 | 0.04 | 0.04 | 57 | 1004.7 |
| 20260506003341 | 68 | 135 | 1.0 | 2.0 | 0.00 | 0.04 | 0.04 | 63 | 1004.8 |
| 20260506002838 | 68 | 180 | 0.0 | 1.0 | 0.00 | 0.04 | 0.04 | 63 | 1004.9 |
| 20260506002334 | 68 | 171 | 2.0 | 2.0 | 0.00 | 0.04 | 0.04 | 63 | 1004.9 |
| 20260506001829 | 68 | 176 | 1.0 | 1.0 | 0.00 | 0.04 | 0.04 | 62 | 1004.6 |
| 20260506001327 | 69 | 171 | 1.0 | 1.0 | 0.00 | 0.04 | 0.04 | 61 | 1005.0 |
| 20260506000824 | 69 | 197 | 2.0 | 2.0 | 0.00 | 0.04 | 0.04 | 62 | 1005.0 |
| 20260506000323 | 69 | 173 | 1.0 | 1.0 | 0.00 | 0.04 | 0.04 | 62 | 1004.8 |
| 20260505235818 | 69 | 174 | 0.0 | 0.0 | 0.00 | 0.04 | 0.04 | 63 | 1005.0 |
| 20260505235316 | 69 | 200 | 4.0 | 6.0 | 0.00 | 0.04 | 0.04 | 58 | 1004.9 |
| 20260505234812 | 69 | 171 | 0.0 | 0.0 | 0.00 | 0.04 | 0.04 | 63 | 1005.0 |
| 20260505234310 | 70 | 165 | 0.0 | 0.0 | 0.00 | 0.04 | 0.04 | 60 | 1005.0 |
| 20260505233807 | 70 | 167 | 0.0 | 0.0 | 0.00 | 0.04 | 0.04 | 62 | 1005.1 |
| 20260505233305 | 70 | 166 | 0.0 | 0.0 | 0.00 | 0.04 | 0.04 | 59 | 1004.8 |
| 20260505232802 | 70 | 169 | 1.0 | 1.0 | 0.00 | 0.04 | 0.04 | 62 | 1005.0 |
| 20260505232259 | 70 | 182 | 0.0 | 0.0 | 0.00 | 0.04 | 0.04 | 62 | 1004.6 |
| 20260505231755 | 70 | 171 | 1.0 | 1.0 | 0.00 | 0.04 | 0.04 | 62 | 1004.8 |
| 20260505231254 | 71 | 176 | 0.0 | 0.0 | 0.00 | 0.04 | 0.04 | 60 | 1004.9 |
| 20260505230752 | 71 | 176 | 0.0 | 0.0 | 0.00 | 0.04 | 0.04 | 59 | 1004.7 |
| 20260505230249 | 71 | 177 | 1.0 | 1.0 | 0.00 | 0.04 | 0.04 | 60 | 1004.9 |
| 20260505225745 | 70 | 181 | 2.0 | 2.0 | 0.00 | 0.04 | 0.04 | 59 | 1005.0 |
| 20260505225243 | 71 | 177 | 0.0 | 0.0 | 0.00 | 0.04 | 0.04 | 59 | 1004.8 |
| 20260505224737 | 71 | 171 | 0.0 | 0.0 | 0.00 | 0.04 | 0.04 | 57 | 1004.7 |
| 20260505224235 | 71 | 169 | 0.0 | 0.0 | 0.00 | 0.04 | 0.04 | 57 | 1004.9 |
| 20260505223733 | 72 | 232 | 3.0 | 5.0 | 0.00 | 0.04 | 0.04 | 55 | 1004.8 |
| 20260505223229 | 72 | 171 | 3.0 | 3.0 | 0.00 | 0.04 | 0.04 | 55 | 1005.1 |
| 20260505222725 | 72 | 138 | 1.0 | 1.0 | 0.00 | 0.04 | 0.04 | 56 | 1004.9 |
| 20260505222221 | 72 | 231 | 3.0 | 3.0 | 0.00 | 0.04 | 0.04 | 54 | 1005.0 |
| 20260505221719 | 72 | 165 | 2.0 | 2.0 | 0.00 | 0.04 | 0.04 | 55 | 1005.1 |
| 20260505221215 | 72 | 208 | 4.0 | 6.0 | 0.00 | 0.04 | 0.04 | 54 | 1005.1 |
| 20260505220712 | 72 | 171 | 1.0 | 1.0 | 0.00 | 0.04 | 0.04 | 58 | 1005.0 |
| 20260505220210 | 72 | 223 | 2.0 | 2.0 | 0.00 | 0.04 | 0.04 | 55 | 1005.1 |
| 20260505215707 | 72 | 197 | 4.0 | 5.0 | 0.00 | 0.04 | 0.04 | 55 | 1004.8 |
| 20260505215205 | 72 | 176 | 1.0 | 1.0 | 0.00 | 0.04 | 0.04 | 55 | 1005.0 |
| 20260505214703 | 72 | 194 | 3.0 | 3.0 | 0.00 | 0.04 | 0.04 | 55 | 1005.1 |
| 20260505214200 | 72 | 189 | 2.0 | 2.0 | 0.00 | 0.04 | 0.04 | 56 | 1005.1 |
| 20260505213657 | 72 | 159 | 2.0 | 2.0 | 0.00 | 0.04 | 0.04 | 54 | 1005.2 |
| 20260505213154 | 72 | 160 | 3.0 | 5.0 | 0.00 | 0.04 | 0.04 | 54 | 1005.3 |
| 20260505212650 | 72 | 156 | 8.0 | 9.0 | 0.00 | 0.04 | 0.04 | 54 | 1005.1 |
| 20260505212148 | 73 | 180 | 4.0 | 5.0 | 0.00 | 0.04 | 0.04 | 55 | 1005.3 |
| 20260505211644 | 72 | 157 | 3.0 | 3.0 | 0.00 | 0.04 | 0.04 | 55 | 1005.1 |
| 20260505211142 | 73 | 224 | 6.0 | 8.0 | 0.00 | 0.04 | 0.04 | 53 | 1005.2 |
| 20260505210638 | 73 | 173 | 5.0 | 7.0 | 0.00 | 0.04 | 0.04 | 53 | 1005.1 |
| 20260505210135 | 73 | 19 | 2.0 | 2.0 | 0.00 | 0.04 | 0.04 | 54 | 1005.2 |
| 20260505205632 | 73 | 169 | 2.0 | 3.0 | 0.00 | 0.04 | 0.04 | 54 | 1005.5 |
| 20260505205131 | 73 | 179 | 7.0 | 8.0 | 0.00 | 0.04 | 0.04 | 54 | 1005.4 |
| 20260505204627 | 72 | 160 | 2.0 | 3.0 | 0.00 | 0.04 | 0.04 | 54 | 1005.2 |
| 20260505204125 | 72 | 209 | 3.0 | 5.0 | 0.00 | 0.04 | 0.04 | 54 | 1005.3 |
| 20260505203621 | 73 | 203 | 3.0 | 6.0 | 0.00 | 0.04 | 0.04 | 55 | 1005.3 |